Location: Squirrel Cove
(50.1074°N, 124.9139°W)
Time: 19:03:11
(UTC-08:00)

Envisat - Pass Details

Date: 02 December 2022
Orbit: 763 x 765 km, 98.2° (Epoch: 05 February)

Event Time Altitude Azimuth Distance (km) Brightness Sun altitude
Rises 05:16:44 0° 10° (N) 3,247 6.3 -25.0°
Reaches altitude 10° 05:19:05 10° 6° (N) 2,316 5.5 -24.6°
Enters shadow 05:22:10 34° 346° (NNW) 1,242 3.9 -24.1°
